Regional Weather Roundup
Issued by NWS Kansas City/Pleasant Hill, MO

Home | Current Version | Previous Version | Text Only | Print | Product List | Glossary On
Versions: 1 2 3 4 5 6 7 8 9 10 11 12 13 14 15 16 17 18 19 20 21 22 23 24 25 26 27 28 29 30 31 32 33 34 35 36 37 38 39 40 41 42 43 44 45 46 47 48 49 50
000
ASUS43 KEAX 241011
RWREAX

WEATHER ROUNDUP FOR EASTERN KANSAS AND NORTHWEST MISSOURI
NATIONAL WEATHER SERVICE KANSAS CITY/PLEASANT HILL MO
500 AM CDT FRI OCT 24 2014

KSZ040-057-103>105-MOZ028-029-037-043-241100-
...KANSAS CITY METROPOLITAN AREA...

CITY           SKY/WX    TMP DP  RH WIND       PRES   REMARKS
K.C. INTL      FOG       57  57 100 S10       30.05S VSB 1/2
K.C. DOWNTOWN  CLOUDY    59  57  93 S7        30.05F FOG
LEES SUMMIT    CLOUDY    56  55  97 SW6       30.07F FOG
OLATHE - IXD   FOG       55  55 100 S8        30.06F VSB 1/2
OLATHE - OJC   CLOUDY    56  56 100 S7        30.06F FOG
LAWRENCE       CLOUDY    57  56  96 S5        30.05F FOG

$$

MOZ001>008-011>017-020>025-030>033-038>040-044>046-053-054-241100-
...NORTHERN AND CENTRAL MISSOURI...

CITY           SKY/WX    TMP DP  RH WIND       PRES   REMARKS
ST. JOSEPH     FOG       52  52 100 S5        30.04S VSB 1/4
MOSBY          FOG       54  54 100 CALM      30.06S VSB 1/2
WHITEMAN AFB   CLOUDY    58  56  94 SW8       30.08S
CLINTON        FOG       55  55 100 CALM      30.10S VSB 1/4
SEDALIA        CLOUDY    60  57  89 W9        30.10S
WARSAW         NOT AVBL
MARSHALL       CLOUDY    61  59  94 SW5       30.09S FOG
CHILLICOTHE      N/A     57  56  96 S5        30.07S
MOBERLY        FOG       52  50  93 S3        30.08S VSB 1/4
KIRKSVILLE     FOG       56  56 100 SW5       30.07S VSB 1/4

$$

MOZ041-047>049-056>058-063>065-088>090-097-241100-
...EASTERN AND SOUTHERN MISSOURI...

CITY           SKY/WX    TMP DP  RH WIND       PRES   REMARKS
ST. LOUIS INTL MOCLDY    54  48  80 W3        30.10R
SPIRIT OF STL  CLOUDY    50  48  93 CALM      30.09R
COLUMBIA       FOG       54  54 100 SW6       30.10S VSB 1
JEFFERSON CITY FOG       46  46 100 CALM      30.10S VSB 1/4
MEXICO         FOG      N/A N/A N/A CALM      30.09R VSB<1/4
HANNIBAL       FOG       52  50  93 CALM      30.08S VSB 3/4
ROLLA          PTCLDY    48  46  93 SW7       30.09R
LEBANON        CLOUDY    57  55  94 W7        30.12S FOG
OSAGE BEACH    CLOUDY    59  55  88 W5        30.11S
SPRINGFIELD    CLEAR     50  48  93 CALM      30.11R FOG
BRANSON        PTCLDY    50  48  93 CALM      30.13S
NEVADA         CLEAR     52  50  93 S5        30.11S FOG
JOPLIN         CLEAR     51  50  96 S3        30.12S
WEST PLAINS    PTCLDY    45  43  93 CALM      30.13R

$$

IAZ060-094-KSZ022-034>040-054-083-096-NEZ052-066-093-241100-
...KANSAS...SOUTHEAST NEBRASKA AND IOWA...

CITY           SKY/WX    TMP DP  RH WIND       PRES   REMARKS
TOPEKA         MOCLDY    59  58  96 S6        30.04F FOG
MANHATTAN      CLEAR     57  56  96 CALM      30.02S FOG
EMPORIA        CLOUDY    57  57 100 S13       30.04F FOG
CHANUTE        PTCLDY    54  53  97 S7        30.09S FOG
WICHITA        MOCLDY    57  55  93 S6        30.05S
OMAHA          MOCLDY    56  54  93 S9        29.97S
LINCOLN        MOCLDY    61  58  90 S12       29.97F
FALLS CITY     CLOUDY    59  58  96 S9        30.01S FOG
LAMONI         FOG       58  58 100 SW8       30.03F VSB 1/4
DES MOINES     FOG       55  54  96 S8        30.00F VSB 1/8

$$




USA.gov is the U.S. government's official web portal to all federal, state and local government web resources and services.